Weather History for Rawlins, WY

Change the Weather History Date:

Friday, December 21, 2012

  Actual Average Record
Temperature  
Mean Temperature 36 °F 21 °F  
Max Temperature 46 °F 30 °F 47 °F (1969)
Min Temperature 25 °F 12 °F -35 °F (1990)
Degree Days  
Heating Degree Days 28 44  
Month to date heating degree days 468 911  
Since 1 July heating degree days 2138 3017  
Cooling Degree Days 0 0  
Month to date cooling degree days 0 0  
Year to date cooling degree days 419 186  
Moisture  
Dew Point 4 °F    
Average Humidity 30    
Maximum Humidity 41    
Minimum Humidity 18    
Precipitation  
Precipitation 0.00 in 0.02 in 0.42 in (2010)
Month to date precipitation 0.11 0.29  
Year to date precipitation 4.70 9.11  
Sea Level Pressure  
Sea Level Pressure 30.14 in    
Wind  
Wind Speed 19 mph (SW)    
Max Wind Speed 31 mph    
Max Gust Speed 45 mph    
Visibility 10 miles    
Events      
T = Trace of Precipitation, MM = Missing Value Source: NWS Daily Summary

Daily Weather History Graph

Daily Weather History Graph

Search for Another Location

Airport:

Trip Planner

Search our weather history database for the weather conditions in past years. The results will help you decide how hot, cold, wet, or windy it might be!

Date:

Astronomy

Dec. 21, 2012 Rise Set
Actual Time 7:33 AM MST 4:41 PM MST
Civil Twilight 7:01 AM MST 5:13 PM MST
Nautical Twilight 6:26 AM MST 5:48 PM MST
Astronomical Twilight 5:52 AM MST 6:22 PM MST
Moon 12:33 PM MST (12/21) 1:19 AM MST (12/21)
Length of Visible Light 10h 11m
Length of Day
9h 08m
Waxing Gibbous, 65% of the Moon is Illuminated
Dec 21
Waxing Gibbous
Dec 28
Full
Jan 4
Last Quarter
Jan 11
New
Jan 18
First Quarter

Hourly Weather History & Observations

Time (MST) Temp. Windchill Dew Point Humidity Pressure Visibility Wind Dir Wind Speed Gust Speed Precip Events Conditions
12:53 AM - - - N/A% 30.22 in 10.0 mi South 4.6 mph - N/A   Clear
1:53 AM - - - N/A% 30.21 in 10.0 mi Variable 4.6 mph - N/A   Clear
2:53 AM - - - N/A% 30.21 in 10.0 mi SSW 31.1 mph 43.7 mph N/A   Clear
3:53 AM - - - N/A% 30.20 in 10.0 mi SW 23.0 mph 29.9 mph N/A   Clear
4:53 AM - - - N/A% 30.19 in 10.0 mi SW 16.1 mph 27.6 mph N/A   Clear
5:53 AM - - - N/A% 30.20 in 10.0 mi WNW 8.1 mph - N/A   Clear
6:53 AM - - - N/A% 30.20 in 10.0 mi SW 16.1 mph 26.5 mph N/A   Clear
7:53 AM - - - N/A% 30.20 in 10.0 mi SW 25.3 mph 33.4 mph N/A   Clear
8:53 AM 39.9 °F 29.7 °F -0.9 °F 18% 30.19 in 10.0 mi SW 23.0 mph 31.1 mph N/A   Clear
9:53 AM 39.9 °F 28.4 °F 1.9 °F 20% 30.19 in 10.0 mi SW 29.9 mph 42.6 mph N/A   Clear
10:53 AM 43.0 °F 33.5 °F 3.0 °F 19% 30.17 in 10.0 mi WSW 24.2 mph 34.5 mph N/A   Clear
11:53 AM 46.0 °F 38.0 °F 5.0 °F 19% 30.14 in 10.0 mi SW 21.9 mph 31.1 mph N/A   Clear
12:53 PM 34.0 °F 21.8 °F 5.0 °F 30% 30.11 in 10.0 mi SW 23.0 mph 36.8 mph N/A   Clear
1:53 PM 35.1 °F 23.5 °F 3.9 °F 27% 30.09 in 10.0 mi SSW 21.9 mph 31.1 mph N/A   Clear
2:53 PM 34.0 °F 21.8 °F 5.0 °F 30% 30.08 in 10.0 mi SW 23.0 mph 36.8 mph N/A   Clear
3:53 PM 32.0 °F 19.2 °F 3.9 °F 31% 30.07 in 10.0 mi SW 23.0 mph 31.1 mph N/A   Clear
4:53 PM 30.0 °F 19.1 °F 3.0 °F 32% 30.08 in 10.0 mi SSW 15.0 mph 18.4 mph N/A   Clear
5:53 PM 28.9 °F 15.4 °F 3.9 °F 35% 30.08 in 10.0 mi SW 21.9 mph 29.9 mph N/A   Clear
6:53 PM 28.0 °F 14.6 °F 3.9 °F 36% 30.08 in 10.0 mi WSW 20.7 mph - N/A   Clear
7:53 PM 27.0 °F 19.5 °F 3.9 °F 37% 30.09 in 10.0 mi SW 6.9 mph - N/A   Clear
8:53 PM 28.0 °F 13.6 °F 3.9 °F 36% 30.09 in 10.0 mi SW 24.2 mph 32.2 mph N/A   Clear
9:53 PM 27.0 °F 12.8 °F 3.9 °F 37% 30.08 in 10.0 mi SW 21.9 mph 31.1 mph N/A   Clear
10:53 PM 27.0 °F 17.3 °F 3.9 °F 37% 30.07 in 10.0 mi SW 10.4 mph 26.5 mph N/A   Clear
11:53 PM 25.0 °F 10.9 °F 3.9 °F 41% 30.05 in 10.0 mi SW 19.6 mph 28.8 mph N/A   Clear